Paducah, KY

5:08 AM CDT on July 28, 2017 (GMT -0500)
Barkley Regional

Weather History for KPAH - March, 2015

Change the Weather History Date:

Thursday, March 26, 2015

  Actual Average Record
Temperature  
Mean Temperature 43 °F 52 °F  
Max Temperature 53 °F 63 °F 83 °F (1991)
Min Temperature 32 °F 40 °F 12 °F (1955)
Degree Days  
Heating Degree Days 22 14  
Month to date heating degree days 507 458  
Since 1 July heating degree days 4176 3754  
Cooling Degree Days 0 0  
Month to date cooling degree days 1 0  
Year to date cooling degree days 1 0  
Moisture  
Dew Point 43 °F    
Average Humidity 79    
Maximum Humidity 93    
Minimum Humidity 65    
Precipitation  
Precipitation 0.35 in 0.14 in 2.00 in (1945)
Month to date precipitation 8.73 3.22  
Year to date precipitation 16.02 10.81  
Snow  
Snow 0.00 in 0.00 in T in (2013)
Month to date snowfall 12.1 0.6  
Since 1 July snowfall 28.6 9.1  
Snow Depth 0.00 in    
Sea Level Pressure  
Sea Level Pressure 29.96 in    
Wind  
Wind Speed 9 mph (North)    
Max Wind Speed 20 mph    
Max Gust Speed 24 mph    
Visibility 7 miles    
Events Rain , Thunderstorm    
T = Trace of Precipitation, MM = Missing Value Source: NWS Daily Summary

Daily Weather History Graph

Daily Weather History Graph

Search for Another Location

Airport or City:

Trip Planner

Search our weather history database for the weather conditions in past years. The results will help you decide how hot, cold, wet, or windy it might be!

Date:

Astronomy

Mar. 26, 2015 Rise Set
Actual Time 6:50 AM CDT 7:12 PM CDT
Civil Twilight 6:24 AM CDT 7:38 PM CDT
Nautical Twilight 5:53 AM CDT 8:08 PM CDT
Astronomical Twilight 5:22 AM CDT 8:39 PM CDT
Moon 11:35 AM CDT (3/26) 1:07 AM CDT (3/26)
Length of Visible Light 13h 14m
Length of Day
12h 22m
Waxing Crescent, 44% of the Moon is Illuminated
Mar 26
Waxing Crescent
Mar 27
First Quarter
Apr 4
Full
Apr 11
Last Quarter
Apr 18
New

Hourly Weather History & Observations

Time (CDT) Temp. Windchill Dew Point Humidity Pressure Visibility Wind Dir Wind Speed Gust Speed Precip Events Conditions
12:08 AM 54.0 °F - 52.0 °F 93% 29.90 in 9.0 mi North 11.5 mph - 0.00 in Rain Light Rain
12:16 AM 54.0 °F - 52.0 °F 93% 29.90 in 5.0 mi North - - 0.00 in Rain , Thunderstorm Light Rain
12:37 AM 54.0 °F - 51.1 °F 90% 29.92 in 2.5 mi North - - 0.09 in Rain , Thunderstorm Heavy Rain
12:41 AM 53.1 °F - 52.0 °F 96% 29.94 in 1.8 mi North - - 0.14 in Rain , Thunderstorm Heavy Thunderstorms and Rain
12:53 AM 53.1 °F - 51.1 °F 93% 29.92 in 3.0 mi North - - 0.26 in Rain , Thunderstorm Thunderstorms and Rain
1:00 AM 53.1 °F - 51.1 °F 93% 29.93 in 4.0 mi North - - 0.02 in Rain , Thunderstorm Rain
1:09 AM 52.0 °F - 50.0 °F 93% 29.90 in 4.0 mi North - - 0.05 in Rain Rain
1:53 AM 51.1 °F - 48.9 °F 92% 29.89 in 7.0 mi North - - 0.08 in Rain Light Rain
2:15 AM 51.1 °F - 48.9 °F 92% 29.89 in 10.0 mi North - - 0.01 in Rain , Thunderstorm Light Rain
2:26 AM 50.0 °F - 48.0 °F 93% 29.92 in 3.0 mi North - - 0.01 in Rain , Thunderstorm Light Thunderstorms and Rain
2:30 AM 50.0 °F - 48.0 °F 93% 29.91 in 1.8 mi North - - 0.08 in Rain , Thunderstorm Heavy Thunderstorms and Rain
2:38 AM 50.0 °F - 48.0 °F 93% 29.89 in 2.5 mi North - - 0.16 in Rain , Thunderstorm Thunderstorms and Rain
2:42 AM 50.0 °F - 48.0 °F 93% 29.89 in 3.0 mi North - - 0.17 in Rain , Thunderstorm Thunderstorms and Rain
2:53 AM 50.0 °F - 48.0 °F 93% 29.87 in 5.0 mi North - - 0.20 in Rain , Thunderstorm Light Thunderstorms and Rain
3:01 AM 50.0 °F - 48.9 °F 96% 29.89 in 8.0 mi North - - 0.00 in Rain , Thunderstorm Light Rain
3:07 AM 50.0 °F - 48.9 °F 96% 29.88 in 9.0 mi North - - 0.00 in   Overcast
3:21 AM 50.0 °F - 48.9 °F 96% 29.87 in 8.0 mi North - - 0.00 in Rain Light Rain
3:30 AM 50.0 °F - 48.9 °F 96% 29.87 in 10.0 mi North - - 0.00 in Rain Light Rain
3:53 AM 50.0 °F - 48.0 °F 93% 29.87 in 9.0 mi North - - 0.01 in Rain Light Rain
4:53 AM 50.0 °F - 48.0 °F 93% 29.87 in 8.0 mi North - - 0.01 in Rain Light Rain
5:53 AM 50.0 °F - 48.0 °F 93% 29.88 in 8.0 mi NNE 6.9 mph - 0.02 in Rain Light Rain
6:01 AM 50.0 °F - 48.0 °F 93% 29.90 in 8.0 mi NNE 6.9 mph - 0.00 in Rain Light Rain
6:42 AM 48.9 °F - 46.0 °F 90% 29.90 in 10.0 mi NNE 6.9 mph - 0.01 in Rain Light Rain
6:53 AM 48.9 °F - 46.0 °F 90% 29.92 in 10.0 mi NNE 6.9 mph - 0.01 in Rain Light Rain
7:12 AM 48.9 °F - 46.0 °F 90% 29.91 in 10.0 mi North 11.5 mph - 0.00 in   Overcast
7:53 AM 48.0 °F - 45.0 °F 89% 29.96 in 9.0 mi North 11.5 mph - 0.01 in Rain Light Rain
8:53 AM 46.0 °F 39.3 °F 43.0 °F 89% 29.96 in 8.0 mi North 16.1 mph - 0.01 in Rain Light Rain
9:51 AM 44.6 °F 37.2 °F 42.8 °F 93% 29.98 in 10.0 mi North 17.3 mph 23.0 mph 0.00 in   Overcast
9:53 AM 45.0 °F 38.5 °F 42.1 °F 90% 29.98 in 10.0 mi North 13.8 mph 23.0 mph 0.00 in   Overcast
10:51 AM 44.6 °F 38.1 °F 42.8 °F 93% 29.98 in 3.0 mi North 13.8 mph - 0.00 in Rain Light Rain
10:53 AM 45.0 °F 38.2 °F 42.1 °F 90% 29.98 in 3.0 mi North 15.0 mph - 0.00 in Rain Light Rain
10:55 AM 45.0 °F 37.9 °F 42.1 °F 90% 29.98 in 2.5 mi North 16.1 mph - 0.00 in Rain Light Rain
11:20 AM 45.0 °F 38.9 °F 42.1 °F 90% 29.98 in 3.0 mi North 12.7 mph - 0.01 in Rain Light Rain
11:28 AM 45.0 °F 38.5 °F 42.1 °F 90% 29.98 in 4.0 mi North 13.8 mph - 0.01 in Rain Light Rain
11:42 AM 44.1 °F 37.7 °F 41.0 °F 89% 29.99 in 4.0 mi North 12.7 mph - 0.01 in Rain Light Rain
11:53 AM 44.1 °F 37.7 °F 39.9 °F 85% 30.00 in 4.0 mi North 12.7 mph - 0.01 in Rain Light Rain
12:00 PM 44.1 °F 37.4 °F 39.9 °F 85% 30.00 in 4.0 mi North 13.8 mph - 0.00 in Rain Light Rain
12:15 PM 43.0 °F 35.7 °F 39.9 °F 89% 30.00 in 3.0 mi North 15.0 mph - 0.00 in Rain Light Rain
12:19 PM 44.1 °F 38.1 °F 41.0 °F 89% 30.00 in 2.5 mi North 11.5 mph - 0.01 in Rain Light Rain
12:23 PM 44.1 °F 37.4 °F 41.0 °F 89% 30.00 in 3.0 mi North 13.8 mph - 0.01 in Rain Light Rain
12:53 PM 44.6 °F 38.1 °F 41.0 °F 87% 30.00 in 8.0 mi North 13.8 mph - N/A   Overcast
1:07 PM 44.1 °F 37.1 °F 39.9 °F 85% 30.00 in 5.0 mi North 15.0 mph - 0.00 in Rain Light Rain
1:16 PM 43.0 °F 36.0 °F 39.9 °F 89% 30.01 in 5.0 mi North 13.8 mph - 0.00 in Rain Light Rain
1:45 PM 43.0 °F 36.8 °F 39.0 °F 86% 30.03 in 9.0 mi North 11.5 mph 20.7 mph 0.00 in Rain Light Rain
1:53 PM 43.0 °F 36.8 °F 39.0 °F 86% 30.03 in 10.0 mi NNW 11.5 mph - 0.00 in   Overcast
2:15 PM 43.0 °F 36.0 °F 37.9 °F 82% 30.03 in 10.0 mi North 13.8 mph - N/A   Overcast
2:27 PM 42.1 °F 34.5 °F 37.0 °F 82% 30.02 in 10.0 mi North 15.0 mph - N/A   Overcast
2:53 PM 43.0 °F 37.2 °F 37.0 °F 80% 30.01 in 10.0 mi North 10.4 mph - 0.00 in   Overcast
3:03 PM 43.0 °F 37.7 °F 37.0 °F 80% 30.00 in 10.0 mi North 9.2 mph - N/A   Overcast
3:48 PM 44.6 °F 38.1 °F 37.4 °F 76% 30.00 in 10.0 mi NNW 13.8 mph - N/A   Overcast
3:53 PM 44.1 °F 37.7 °F 36.0 °F 73% 29.99 in 10.0 mi North 12.7 mph - N/A   Overcast
4:53 PM 45.0 °F 38.9 °F 36.0 °F 71% 30.01 in 10.0 mi North 12.7 mph 20.7 mph N/A   Overcast
5:14 PM 45.0 °F 38.2 °F 36.0 °F 71% 30.01 in 10.0 mi North 15.0 mph 21.9 mph N/A   Overcast
5:53 PM 44.1 °F 38.6 °F 35.1 °F 71% 30.01 in 10.0 mi NNW 10.4 mph - N/A   Partly Cloudy
6:53 PM 44.1 °F 38.6 °F 33.1 °F 65% 30.01 in 10.0 mi North 10.4 mph - N/A   Clear
7:53 PM 41.0 °F 37.1 °F 33.1 °F 73% 30.04 in 10.0 mi NNW 5.8 mph - N/A   Clear
8:53 PM 41.0 °F 39.0 °F 32.0 °F 70% 30.05 in 10.0 mi NNW 3.5 mph - N/A   Clear
9:53 PM 37.0 °F - 32.0 °F 82% 30.06 in 10.0 mi Calm Calm - N/A   Clear
10:53 PM 36.0 °F - 32.0 °F 86% 30.05 in 10.0 mi Calm Calm - N/A   Clear
11:53 PM 33.1 °F 28.7 °F 30.9 °F 92% 30.05 in 10.0 mi WSW 4.6 mph - N/A   Clear